Year,Month,Day,Hour,Minute,Value (Times are PST for temperature in C)
2009,06,24,10,06,12.40
2009,06,24,10,07,12.40
2009,06,24,10,08,12.40
2009,06,24,10,09,12.40
2009,06,24,10,10,12.40
2009,06,24,10,11,12.50
2009,06,24,10,12,12.50
2009,06,24,10,13,12.50
2009,06,24,10,14,12.50
2009,06,24,10,15,12.60
2009,06,24,10,16,12.60
2009,06,24,10,17,12.50
2009,06,24,10,18,12.50
2009,06,24,10,19,12.40
2009,06,24,10,20,12.40
2009,06,24,10,21,12.40
2009,06,24,10,22,12.40
2009,06,24,10,23,12.40
2009,06,24,10,24,12.40
2009,06,24,10,25,12.40
2009,06,24,10,26,12.40
2009,06,24,10,27,12.40
2009,06,24,10,28,12.40
2009,06,24,10,29,12.40
2009,06,24,10,45,12.50
2009,06,24,10,46,12.50
2009,06,24,10,47,12.50
2009,06,24,10,48,12.50
2009,06,24,10,49,12.50
2009,06,24,10,50,12.50
2009,06,24,10,51,12.50
2009,06,24,10,52,12.50
2009,06,24,10,53,12.50
2009,06,24,10,54,12.50
2009,06,24,10,55,12.50
2009,06,24,10,56,12.50
2009,06,24,10,57,12.50
2009,06,24,10,58,12.50
2009,06,24,10,59,12.50
2009,06,24,11,00,12.50
2009,06,24,11,01,12.50
2009,06,24,11,02,12.50
2009,06,24,11,03,12.60
2009,06,24,11,04,12.60
2009,06,24,11,05,12.60
2009,06,24,11,06,12.60
2009,06,24,11,07,12.60
2009,06,24,11,08,12.50
2009,06,24,11,09,12.50
2009,06,24,11,10,12.50
2009,06,24,11,11,12.40
2009,06,24,11,12,12.40
2009,06,24,11,13,12.30
2009,06,24,11,14,12.30
2009,06,24,11,15,12.30
2009,06,24,11,16,12.30
2009,06,24,11,17,12.30
2009,06,24,11,18,12.30
2009,06,24,11,19,12.30
2009,06,24,11,20,12.40
2009,06,24,11,21,12.40
2009,06,24,11,22,12.40
2009,06,24,11,23,12.40
2009,06,24,11,24,12.40
2009,06,24,11,25,12.40
2009,06,24,11,26,12.40
2009,06,24,11,27,12.40
2009,06,24,11,28,12.40
2009,06,24,11,29,12.30
2009,06,24,11,30,12.40
2009,06,24,11,31,12.40
2009,06,24,11,32,12.40
2009,06,24,11,33,12.40
2009,06,24,11,34,12.40
2009,06,24,11,35,12.50
2009,06,24,11,36,12.50
2009,06,24,11,37,12.50
2009,06,24,11,38,12.50
2009,06,24,11,39,12.40
2009,06,24,11,40,12.30
2009,06,24,11,41,12.30
2009,06,24,11,42,12.30
2009,06,24,11,43,12.30
2009,06,24,11,44,12.30
2009,06,24,11,45,12.30
2009,06,24,11,46,12.30
2009,06,24,11,47,12.30
2009,06,24,11,48,12.30
2009,06,24,11,49,12.30
2009,06,24,11,50,12.30
2009,06,24,11,51,12.30
2009,06,24,11,52,12.30
2009,06,24,11,53,12.30
2009,06,24,11,54,12.30
2009,06,24,11,55,12.30
2009,06,24,11,56,12.30
2009,06,24,11,57,12.30
2009,06,24,11,58,12.30
2009,06,24,11,59,12.30
2009,06,24,12,00,12.30
2009,06,24,12,01,12.30
2009,06,24,12,17,12.10
2009,06,24,12,18,12.10
2009,06,24,12,19,12.10
2009,06,24,12,20,12.20
2009,06,24,12,21,12.20
2009,06,24,12,22,12.20
2009,06,24,12,23,12.20
2009,06,24,12,24,12.20
2009,06,24,12,25,12.20
2009,06,24,12,26,12.30
2009,06,24,12,27,12.30
2009,06,24,12,28,12.30
2009,06,24,12,29,12.30
2009,06,24,12,30,12.30
2009,06,24,12,31,12.30
2009,06,24,12,32,12.40
2009,06,24,12,33,12.40
2009,06,24,12,34,12.40
2009,06,24,12,35,12.40
2009,06,24,12,36,12.40
2009,06,24,12,37,12.50
2009,06,24,12,38,12.50
2009,06,24,12,39,12.50
2009,06,24,12,40,12.60
2009,06,24,12,41,12.60
2009,06,24,12,42,12.60
2009,06,24,12,43,12.60
2009,06,24,12,44,12.60
2009,06,24,12,45,12.60
2009,06,24,12,46,12.60
2009,06,24,12,47,12.60
2009,06,24,12,48,12.60
2009,06,24,12,49,12.60
2009,06,24,12,50,12.60
2009,06,24,12,51,12.60
2009,06,24,12,52,12.60
2009,06,24,12,53,12.60
2009,06,24,12,54,12.60
2009,06,24,12,55,12.60
2009,06,24,12,56,12.60
2009,06,24,12,57,12.60
2009,06,24,12,58,12.60
2009,06,24,12,59,12.60
2009,06,24,13,00,12.60
2009,06,24,13,01,12.70
2009,06,24,13,02,12.70
2009,06,24,13,03,12.80
2009,06,24,13,04,12.80
2009,06,24,13,05,12.80
2009,06,24,13,06,12.70
2009,06,24,13,07,12.70
2009,06,24,13,08,12.80
2009,06,24,13,09,12.80
2009,06,24,13,10,12.80
2009,06,24,13,11,12.80
2009,06,24,13,12,12.80
2009,06,24,13,13,12.80
2009,06,24,13,14,12.80
2009,06,24,13,15,12.80
2009,06,24,13,16,12.80
2009,06,24,13,17,12.80
2009,06,24,13,18,12.80
2009,06,24,13,19,12.80
2009,06,24,13,20,12.80
2009,06,24,13,21,12.80
2009,06,24,13,22,12.80
2009,06,24,13,23,12.80
2009,06,24,13,24,12.80
2009,06,24,13,25,12.90
2009,06,24,13,26,12.90
2009,06,24,13,27,12.90
2009,06,24,13,28,12.90
2009,06,24,13,29,12.90
2009,06,24,13,30,12.90
2009,06,24,13,31,13.00
2009,06,24,13,32,13.00
2009,06,24,13,33,13.10
2009,06,24,13,34,13.10
2009,06,24,13,35,13.10
2009,06,24,13,36,13.20
2009,06,24,13,37,13.20
2009,06,24,13,38,13.30
2009,06,24,13,39,13.30
2009,06,24,13,40,13.30
2009,06,24,13,41,13.30
2009,06,24,13,42,13.30
2009,06,24,13,43,13.30
2009,06,24,13,44,13.30
2009,06,24,13,45,13.30
2009,06,24,13,46,13.30
2009,06,24,13,47,13.30
2009,06,24,13,48,13.20
2009,06,24,13,49,13.20
2009,06,24,13,50,13.20
2009,06,24,13,51,13.20
2009,06,24,13,52,13.20
2009,06,24,13,53,13.20
2009,06,24,13,54,13.20
2009,06,24,13,55,13.30
2009,06,24,13,56,13.30
2009,06,24,13,57,13.30
2009,06,24,13,58,13.30
2009,06,24,13,59,13.30
2009,06,24,14,00,13.30
2009,06,24,14,01,13.30
2009,06,24,14,02,13.40
2009,06,24,14,03,13.40
2009,06,24,14,04,13.40
2009,06,24,14,05,13.40
2009,06,24,14,06,13.40
2009,06,24,14,07,13.40
2009,06,24,14,08,13.50
2009,06,24,14,09,13.50
2009,06,24,14,10,13.60
2009,06,24,14,11,13.60
2009,06,24,14,12,13.70
2009,06,24,14,13,13.70
2009,06,24,14,14,13.70
2009,06,24,14,15,13.70
2009,06,24,14,16,13.70
2009,06,24,14,17,13.70
2009,06,24,14,18,13.70
2009,06,24,14,19,13.70
2009,06,24,14,20,13.70
2009,06,24,14,21,13.70
2009,06,24,14,22,13.80
2009,06,24,14,23,13.80
2009,06,24,14,24,13.80
2009,06,24,14,25,13.90
2009,06,24,14,26,14.00
2009,06,24,14,27,14.10
2009,06,24,14,28,14.10
2009,06,24,14,29,14.20
2009,06,24,14,30,14.20
2009,06,24,14,31,14.30
2009,06,24,14,32,14.30
2009,06,24,14,33,14.30
2009,06,24,14,34,14.30
2009,06,24,14,35,14.30
2009,06,24,14,36,14.40
2009,06,24,14,37,14.40
2009,06,24,14,38,14.40
2009,06,24,14,39,14.40
2009,06,24,14,40,14.50
2009,06,24,14,41,14.50
2009,06,24,14,42,14.60
2009,06,24,14,43,14.70
2009,06,24,14,44,14.80
2009,06,24,14,45,14.80
2009,06,24,14,46,14.90
2009,06,24,14,47,15.00
2009,06,24,14,48,15.00
2009,06,24,14,49,15.00
2009,06,24,14,50,15.00
2009,06,24,14,51,15.00
2009,06,24,14,52,15.00
2009,06,24,14,53,15.00
2009,06,24,14,54,15.00
2009,06,24,14,55,15.00
2009,06,24,14,56,15.00
2009,06,24,14,57,15.00
2009,06,24,14,58,15.00
2009,06,24,14,59,15.00
2009,06,24,15,00,15.00
2009,06,24,15,01,15.00
2009,06,24,15,02,15.00
2009,06,24,15,03,15.00
2009,06,24,15,04,15.00
2009,06,24,15,05,15.00
2009,06,24,15,06,15.00
2009,06,24,15,07,15.00
2009,06,24,15,08,15.00
2009,06,24,15,09,15.00
2009,06,24,15,10,15.00
2009,06,24,15,11,15.10
2009,06,24,15,12,15.10
2009,06,24,15,13,15.10
2009,06,24,15,14,15.00
2009,06,24,15,15,15.10
2009,06,24,15,16,15.10
2009,06,24,15,17,15.20
2009,06,24,15,18,15.20
2009,06,24,15,19,15.10
2009,06,24,15,20,15.10
2009,06,24,15,21,15.10
2009,06,24,15,22,15.10
2009,06,24,15,23,15.00
2009,06,24,15,24,15.00
2009,06,24,15,25,15.00
2009,06,24,15,26,15.00
2009,06,24,15,27,15.00
2009,06,24,15,28,15.00
2009,06,24,15,29,14.90
2009,06,24,15,30,14.80
2009,06,24,15,31,14.80
2009,06,24,15,32,14.80
2009,06,24,15,33,14.70
2009,06,24,15,34,14.70
2009,06,24,15,35,14.60
2009,06,24,15,36,14.60
2009,06,24,15,37,14.50
2009,06,24,15,38,14.40
2009,06,24,15,39,14.40
2009,06,24,15,40,14.30
2009,06,24,15,41,14.30
2009,06,24,15,42,14.30
2009,06,24,15,43,14.30
2009,06,24,15,44,14.30
2009,06,24,15,45,14.30
2009,06,24,15,46,14.30
2009,06,24,15,47,14.30
2009,06,24,15,48,14.30
2009,06,24,15,49,14.30
2009,06,24,15,50,14.30
2009,06,24,15,51,14.40
2009,06,24,15,52,14.40
2009,06,24,15,53,14.40
2009,06,24,15,54,14.40
2009,06,24,15,55,14.40
2009,06,24,15,56,14.40
2009,06,24,15,57,14.40
2009,06,24,15,58,14.40
2009,06,24,15,59,14.40
2009,06,24,16,00,14.40
2009,06,24,16,01,14.40
2009,06,24,16,02,14.40
2009,06,24,16,03,14.40
2009,06,24,16,04,14.40
2009,06,24,16,05,14.40
2009,06,24,16,06,14.40
2009,06,24,16,07,14.40
2009,06,24,16,08,14.50
2009,06,24,16,09,14.50
2009,06,24,16,10,14.50
2009,06,24,16,11,14.50
2009,06,24,16,12,14.40
2009,06,24,16,13,14.40
2009,06,24,16,14,14.40
2009,06,24,16,15,14.40
2009,06,24,16,16,14.40
2009,06,24,16,17,14.30
2009,06,24,16,18,14.30
2009,06,24,16,19,14.30
2009,06,24,16,20,14.30
2009,06,24,16,21,14.30
2009,06,24,16,22,14.30
2009,06,24,16,23,14.30
2009,06,24,16,24,14.30
2009,06,24,16,25,14.30
2009,06,24,16,26,14.30
2009,06,24,16,27,14.30
2009,06,24,16,28,14.30
2009,06,24,16,29,14.30
2009,06,24,16,30,14.30
2009,06,24,16,31,14.30
2009,06,24,16,32,14.30
2009,06,24,16,33,14.40
2009,06,24,16,34,14.40
2009,06,24,16,35,14.40
2009,06,24,16,36,14.40
2009,06,24,16,37,14.50
2009,06,24,16,38,14.60
2009,06,24,16,39,14.50
2009,06,24,16,40,14.60
2009,06,24,16,41,14.60
2009,06,24,16,42,14.60
2009,06,24,16,43,14.60
2009,06,24,16,44,14.60
2009,06,24,16,45,14.60
2009,06,24,16,46,14.60
2009,06,24,16,47,14.60
2009,06,24,16,48,14.60
2009,06,24,16,49,14.60
2009,06,24,16,50,14.60
2009,06,24,16,51,14.60
2009,06,24,16,52,14.60
2009,06,24,16,53,14.60
2009,06,24,16,54,14.60
2009,06,24,16,55,14.60
2009,06,24,16,56,14.60
2009,06,24,16,57,14.60
